Location: Choisy
(48.7685°N, 2.4187°E)
Time: 08:52:14
(UTC+00:00)

ATLAS 3B R/B - Pass Details

Date: 03 December 2023
Orbit: 947 x 1247 km, 63.8° (Epoch: 10 February)

Event Time Altitude Azimuth Distance (km) Brightness Sun altitude
Exits shadow 04:40:08 49° 238° (WSW) 1,423 3.0 -26.1°
Maximum altitude 04:42:16 78° 313° (NW) 1,175 2.7 -25.7°
Drops below altitude 10° 04:49:51 10° 40° (NE) 3,148 5.5 -24.5°
Sets 04:52:42 0° 42° (NE) 4,145 6.3 -24.0°
